Location: Observatoire
(46.1952°N, 5.3391°E)
Time: 07:11:53
(UTC+01:00)

Altair - Pass Details

Date: 25 February 2026
Orbit: 1502 x 1682 km, 47.2° (Epoch: 5 March)

Event Time Altitude Azimuth Distance (km) Brightness Sun altitude
Rises 05:07:53 0° 257° (WSW) 4,630 - -24.4°
Reaches altitude 10° 05:10:53 10° 258° (WSW) 3,653 - -23.9°
Exits shadow 05:15:44 37° 260° (W) 2,194 7.7 -23.1°
Maximum altitude 05:20:06 88° 349° (N) 1,526 7.4 -22.3°
Drops below altitude 10° 05:29:35 10° 80° (E) 3,746 10.7 -20.7°
Sets 05:32:41 0° 81° (E) 4,754 11.7 -20.2°
